Regional Weather Roundup
Issued by NWS

Home | Current Version | Previous Version | Graphics & Text | Print | Product List | Glossary On
Versions: 1 2 3 4 5 6 7 8 9 10 11 12 13 14 15 16 17 18 19 20 21 22 23 24 25 26 27 28 29 30 31 32 33 34 35 36 37 38 39 40 41 42 43 44 45 46 47 48 49 50
000
ASUS43 KLOT 221108
RWRIL

ILLINOIS REGIONAL WEATHER ROUNDUP
NATIONAL WEATHER SERVICE CHICAGO/ROMEOVILLE IL
500 AM CST MON JAN 22 2018

NOTE: "FAIR" INDICATES FEW OR NO CLOUDS BELOW 12,000 FEET WITH NO
SIGNIFICANT WEATHER AND/OR OBSTRUCTIONS TO VISIBILITY.

* THESE STATIONS ARE NOT UNDER NWS QUALITY CONTROL. THEY ALSO MAY NOT
  REPORT WEATHER SUCH AS PRECIPITATION OR FOG.

ILZ001-002-007-009-015-016-024-221200-
NORTHWEST ILLINOIS

CITY           SKY/WX    TMP DP  RH WIND       PRES   REMARKS
MOLINE         LGT RAIN  49  48  97 E9        29.54F VSB 3/4
STERLING*        N/A    N/A N/A N/A MISG        N/A
SAVANNA*       CLOUDY    40  39  99 NE12      29.61F
$$

ILZ003-004-008-010-011-017-018-221200-
NORTH CENTRAL ILLINOIS

CITY           SKY/WX    TMP DP  RH WIND       PRES   REMARKS
ROCKFORD       RAIN      40  39  97 NE8       29.65F FOG
FREEPORT*      DRIZZLE   37  37 100 NE10      29.65F WCI  29
ROCHELLE*      LGT RAIN  45  45 100 E9        29.62F
DE KALB*       RAIN      45  45  99 E12       29.64F VSB 1
PERU*          RAIN      49  49  98 SE10      29.60F
$$

ILZ005-006-012>014-019>023-221200-
NORTHEAST ILLINOIS

CITY           SKY/WX    TMP DP  RH WIND       PRES   REMARKS
CHICAGO-OHARE  RAIN      46  45  96 E8        29.67F FOG
CHICAGO-MIDWAY RAIN      48  48 100 E3        29.67F FOG
AURORA         LGT RAIN  47  47 100 SE9       29.64F FOG
LANSING*       CLOUDY    48  48 100 SE5       29.68F
JOLIET*        CLOUDY    49  49 100 CALM      29.66S
WAUKEGAN       LGT RAIN  39  39 100 NE7       29.69F VSB 1/4 WCI  34
DUPAGE AIRPORT HVY RAIN  48  48 100 SE7       29.65F FOG
KANKAKEE*      MOCLDY   N/A N/A N/A SE7       29.66F
WHEELING       RAIN      41  41 100 NE5       29.69S FOG
MORRIS*        LGT RAIN  48  47  99 E8        29.62F
ROMEOVILLE*    RAIN      47  47 100 SE3       29.66F
NORTHERLY ISL    N/A     40  39  97 NE2         N/A
$$

LMZ740>746-221200-
SOUTHERN LAKE MICHIGAN

STATION/POSITION SKY/WX   TEMP    WIND        PRES    VSBY  WAVE
                          AIR SEA DIR/SP/G                  HT/PER
                          (F)     (DEG/KT/KT) (MB)    (MI)  (FT/S)
HARRISON CRIB              44     120/ 17/ 17   N/A
BURNHAM HARBOR             39     360/  3/  4   N/A
CALUMET HARBOR             48     150/  6/  8 1004.7F
BURNS HARBOR               51     150/ 12/ 19 1006.1F
MICHIGAN CITY              48     130/  8/  9   N/A
$$

ILZ025>027-034>036-040-047-049-050-058-095>099-221200-
WEST-CENTRAL ILLINOIS

CITY           SKY/WX    TMP DP  RH WIND       PRES   REMARKS
QUINCY         CLOUDY    53  51  93 S12       29.53F
MACOMB*        LGT RAIN  51  51 100 SE10      29.52F
JACKSONVILLE*  CLOUDY    51  51  98 SE10      29.55F
PITTSFIELD*    CLOUDY    51  51 100 CALM      29.56R
$$

ILZ028>032-037-038-041>044-048-051>054-059>061-221200-
CENTRAL ILLINOIS

CITY           SKY/WX    TMP DP  RH WIND       PRES   REMARKS
PONTIAC        TSTM      48  48  99 S9        29.64S
BLOOMINGTON    LGT RAIN  50  48  93 S24G32    29.60F
DECATUR        HVY RAIN  51  50  96 S22       29.66R FOG
PEORIA         LGT RAIN  53  52  96 SE9       29.57F
LACON*         RAIN      52  52 100 S10       29.57F
LINCOLN*       RAIN      53  53  99 S12G26    29.61R
SPRINGFIELD    RAIN      54  53  97 S17       29.62R
TAYLORVILLE    LGT RAIN  51  51  99 S16G22    29.65F
$$

ILZ033-039-045-046-055>057-062-063-221200-
EAST-CENTRAL ILLINOIS

CITY           SKY/WX    TMP DP  RH WIND       PRES   REMARKS
CHAMPAIGN      MOCLDY    51  46  83 S21       29.64F
DANVILLE*      FAIR      52  45  78 S17       29.64F
RANTOUL*       CLOUDY    49  47  92 SE14G21   29.64F
MATTOON        FAIR      52  45  77 S16G26    29.64F
PARIS*         FAIR      48  45  87 SE16      29.67F
$$

ILZ079-100>102-221200-
SOUTHWEST ILLINOIS

CITY           SKY/WX    TMP DP  RH WIND       PRES   REMARKS
ALTON          LGT RAIN  53  53 100 SE14      29.61F
BELLEVILLE     LGT RAIN  54  52  94 S8        29.62F
CAHOKIA*       LGT RAIN  54  52  93 SE10      29.60F
SPARTA*        RAIN      53  53 100 SE7       29.67F
$$

ILZ064>066-069>071-074>076-080>082-084>086-088>090-092>094-221200-
SOUTH-CENTRAL ILLINOIS

CITY           SKY/WX    TMP DP  RH WIND       PRES   REMARKS
CARBONDALE     HVY RAIN  54  53  97 SW14G24   29.74R FOG
CAIRO*         TSTM      54  51  90 S14       29.76R
EFFINGHAM*     TSTM      54  47  78 SW21      29.75R
MARION         RAIN      54  54  99 W10G28    29.77R
MT. VERNON     TSTM      54  50  86 W17G26    29.75R FOG
CENTRALIA*     TSTM      52  52  99 SW8       29.73R
SALEM*         TSTM      53  50  90 W13G21    29.74R
METROPOLIS*    TSTM      60  47  62 S15G24    29.73R
$$

ILZ067-068-072-073-078-083-087-091-221200-
SOUTHEAST ILLINOIS

CITY           SKY/WX    TMP DP  RH WIND       PRES   REMARKS
LAWRENCEVILLE  FAIR      52  44  74 S21G31    29.71F
FLORA*         MOCLDY    54  46  74 S16       29.66F
FAIRFIELD*     FAIR      55  46  70 SE12      29.65F
HARRISBURG*    CLOUDY    58  47  68 S22       29.69F THUNDER
ROBINSON*      FAIR      53  44  74 S18       29.70F
CARMI*         FAIR      52  45  76 SE16G25   29.69F
$$

ABBREVIATIONS USED IN REMARKS
   TC - TEMPERATURE IN CELSIUS
  WCI - WIND CHILL INDEX
   HX - HEAT INDEX
  VSB - VISIBILITY
$$





USA.gov is the U.S. government's official web portal to all federal, state and local government web resources and services.